Regional Weather Roundup
Issued by NWS Jackson, KY

Home | Current Version | Previous Version | Text Only | Print | Product List | Glossary Off
Versions: 1 2 3 4 5 6 7 8 9 10 11 12 13 14 15 16 17 18 19 20 21 22 23 24 25 26 27 28 29 30 31 32 33 34 35 36 37 38 39 40 41 42 43 44 45 46 47 48 49 50

000
ASUS43 KJKL 031110
RWRJKL

EAST KENTUCKY HOURLY WEATHER ROUNDUP
NATIONAL WEATHER SERVICE JACKSON KY
700 AM EDT THU SEP 03 2015

NOTE: "FAIR" INDICATES FEW OR NO CLOUDS BELOW 12,000 FEET WITH
NO SIGNIFICANT WEATHER AND/OR OBSTRUCTIONS TO VISIBILITY.

* THESE REPORTS ARE NOT UNDER NWS QUALITY CONTROL AND MAY NOT
  REPORT WEATHER SUCH AS PRECIPITATION AND FOG.

KYZ079-080-083-085-087-088-110-112-115-119-120-031200
...EASTERN KENTUCKY...

CITY           SKY/WX    TMP DP  RH WIND       PRES   REMARKS
JACKSON        MOCLDY    67  66  97 CALM      30.06R FOG
LONDON         CLOUDY    65  61  87 CALM      30.06R FOG
SOMERSET*      FOG       64  64 100 CALM      30.06S VSB<1/4
MONTICELLO*    PTCLDY    64  64 100 CALM      30.08R FOG
WILLIAMSBURG*  CLOUDY    63  63 100 CALM      30.07R
MIDDLESBORO*   FOG       64  64 100 CALM      30.08S VSB 1
HARLAN APT*      N/A     63  63 100 MISG      30.09S VSB 1/4
HAZARD APT*    SUNNY     64  64 100 CALM      30.06S FOG
BLACK MTN*       N/A     64  59  82 N8          N/A
PIKEVILLE APT* CLEAR     66  64  94 CALM      30.06S FOG
BIG SANDY*       N/A     66  66  99 CALM      30.05S FOG
MOREHEAD APT*  FOG       66  66 100 CALM      30.06S VSB 1/4
$$

KYZ035-036-041-042-044-050-067-078-099-031200
...CENTRAL KENTUCKY...

CITY           SKY/WX    TMP DP  RH WIND       PRES   REMARKS
MT STERLING*   FOG       64  64 100 W3        30.06S VSB 1
FLEMING/MASON* FOG       64  64 100 SW5       30.05R VSB 3/4
DANVILLE*      CLEAR     63  63 100 CALM      30.06R FOG
RICHMOND*      CLEAR     66  63  88 CALM      30.04S
LEXINGTON      CLEAR     67  64  90 CALM      30.05R FOG
FRANKFORT      CLEAR     66  63  90 N3        30.04R FOG
$$

KYZ091>093-OHZ055-061-077-WVZ005-015-034-035-042-031200
...SOUTHERN OHIO/WEST VIRGINIA...

CITY           SKY/WX    TMP DP  RH WIND       PRES   REMARKS
COVINGTON      PTCLDY    69  66  90 CALM      30.04R FOG
COLUMBUS       PTCLDY    69  67  93 CALM      30.00S
DAYTON         PTCLDY    66  66 100 W6        30.04R
WILMINGTON     CLEAR     66  63  90 W5        30.03S
HUNTINGTON     FOG       66  66 100 CALM      30.03R VSB 1
CHARLESTON     PTCLDY    66  65  96 CALM      30.02S FOG
PINEVILLE*     CLOUDY    63  63 100 MISG      30.13R FOG
BECKLEY        MOCLDY    63  61  93 CALM      30.11R FOG
BLUEFIELD      PTCLDY    66  61  84 W6        30.12S
$$

VAZ002-007-008-TNZ017-027-036-066-071-031200
...SOUTHWEST VIRGINIA/EAST TENNESSEE...

CITY           SKY/WX    TMP DP  RH WIND       PRES   REMARKS
WISE*          PTCLDY    66  64  94 CALM      30.14S
JONESVILLE*    MOSUNNY   63  61  94 CALM      30.09S FOG
ABINGDON*      MOCLDY    65  62  90 CALM      30.09S
BRISTOL        MOCLDY    64  63  96 CALM      30.07R FOG
KNOXVILLE      CLOUDY    71  70  96 E5        30.02S
OAK RIDGE      CLOUDY    70  67  90 CALM      30.05R
CROSSVILLE     PTCLDY    67  65  93 CALM      30.09R FOG
NASHVILLE      PTCLDY    73  69  87 CALM      30.03R
$$

...KEY TO REMARKS...
VSB - VISIBILITY IN MILES
WCI - WIND CHILL INDEX
HX  - HEAT INDEX

$$



USA.gov is the U.S. government's official web portal to all federal, state and local government web resources and services.